Klamath Falls, OR

9:51 PM PDT on September 19, 2017 (GMT -0700)
Klamath Falls International

Weather History for KLMT - July, 2014

Change the Weather History Date:

Monday, July 28, 2014

  Actual Average Record
Temperature  
Mean Temperature 71 °F 67 °F  
Max Temperature 94 °F 86 °F 97 °F (1934)
Min Temperature 47 °F 49 °F 40 °F (2001)
Degree Days  
Heating Degree Days 0 1  
Month to date heating degree days 10 44  
Since 1 June heating degree days 185 261  
Since 1 July heating degree days 10 44  
Cooling Degree Days 6 3  
Month to date cooling degree days 198 69  
Year to date cooling degree days 205 81  
Since 1 June cooling degree days 205 80  
Growing Degree Days 20 (Base 50)    
Moisture  
Dew Point 41 °F    
Average Humidity 41    
Maximum Humidity 86    
Minimum Humidity 10    
Precipitation  
Precipitation 0.00 in 0.01 in 0.27 in (1947)
Month to date precipitation 0.09 0.46  
Year to date precipitation 6.59 9.29  
Sea Level Pressure  
Sea Level Pressure 30.04 in    
Wind  
Wind Speed 3 mph (NW)    
Max Wind Speed 10 mph    
Max Gust Speed 14 mph    
Visibility 10 miles    
Events      
T = Trace of Precipitation, MM = Missing Value Source: NWS Daily Summary

Daily Weather History Graph

Daily Weather History Graph

Search for Another Location

Airport or City:

Trip Planner

Search our weather history database for the weather conditions in past years. The results will help you decide how hot, cold, wet, or windy it might be!

Date:

Astronomy

Jul. 28, 2014 Rise Set
Actual Time 5:56 AM PDT 8:30 PM PDT
Civil Twilight 5:24 AM PDT 9:02 PM PDT
Nautical Twilight 4:43 AM PDT 9:42 PM PDT
Astronomical Twilight 3:58 AM PDT 10:27 PM PDT
Moon 7:45 AM PDT (7/28) 9:11 PM PDT (7/28)
Length of Visible Light 15h 38m
Length of Day
14h 34m
Waxing Crescent, 3% of the Moon is Illuminated
Jul 28
Waxing Crescent
Aug 3
First Quarter
Aug 10
Full
Aug 17
Last Quarter
Aug 25
New

Hourly Weather History & Observations

Time (PDT) Temp. Dew Point Humidity Pressure Visibility Wind Dir Wind Speed Gust Speed Precip Events Conditions
12:53 AM 55.0 °F 46.9 °F 74% 30.07 in 10.0 mi East 3.5 mph - N/A   Clear
1:53 AM 57.0 °F 46.9 °F 69% 30.06 in 10.0 mi Calm Calm - N/A   Clear
2:53 AM 53.1 °F 45.0 °F 74% 30.07 in 10.0 mi Calm Calm - N/A   Clear
3:53 AM 51.1 °F 46.0 °F 83% 30.08 in 10.0 mi Calm Calm - N/A   Clear
4:53 AM 48.9 °F 44.1 °F 83% 30.09 in 10.0 mi Calm Calm - N/A   Clear
5:53 AM 50.0 °F 41.0 °F 71% 30.08 in 10.0 mi Calm Calm - N/A   Clear
7:53 AM 62.1 °F 48.0 °F 60% 30.10 in 10.0 mi Calm Calm - N/A   Clear
8:53 AM 70.0 °F 51.1 °F 51% 30.09 in 10.0 mi Calm Calm - N/A   Clear
9:53 AM 77.0 °F 46.9 °F 34% 30.08 in 10.0 mi WNW 4.6 mph - N/A   Clear
12:53 PM 89.1 °F 34.0 °F 14% 30.06 in 10.0 mi Variable 4.6 mph - N/A   Clear
1:53 PM 91.9 °F 30.0 °F 11% 30.03 in 10.0 mi Variable 5.8 mph - N/A   Clear
2:53 PM 93.9 °F 28.0 °F 10% 30.02 in 10.0 mi Variable 3.5 mph - N/A   Clear
3:53 PM 91.9 °F 28.9 °F 11% 30.01 in 10.0 mi West 6.9 mph - N/A   Clear
4:53 PM 91.9 °F 28.0 °F 10% 30.00 in 10.0 mi NNW 11.5 mph - N/A   Clear
5:53 PM 93.0 °F 30.0 °F 11% 29.99 in 10.0 mi NW 13.8 mph - N/A   Clear
6:53 PM 90.0 °F 35.1 °F 14% 29.99 in 10.0 mi NNW 15.0 mph - N/A   Clear
7:53 PM 87.1 °F 37.9 °F 18% 29.98 in 10.0 mi NNW 10.4 mph - N/A   Clear
8:53 PM 81.0 °F 42.1 °F 25% 30.00 in 10.0 mi NW 10.4 mph - N/A   Clear
9:53 PM 77.0 °F 46.9 °F 34% 30.02 in 10.0 mi NW 8.1 mph - N/A   Clear
10:53 PM 75.0 °F 51.1 °F 43% 30.02 in 10.0 mi NNW 9.2 mph - N/A   Clear
11:53 PM 71.1 °F 54.0 °F 55% 30.02 in 10.0 mi NW 5.8 mph - N/A   Clear